Location: Newark
(40.7360°N, 74.1730°W)
Time: 08:55:39
(UTC-04:00)

Amateur Radio Satellites - All Passes

Search period start: 26 May 2017 08:25
Search period end: 27 May 2017 08:25
Location: Newark, 40.7360°N, 74.1730°W

Satellite Date Start Highest point End Downlink Frequencies (MHz)
Time Altitude Azimuth
NUDT-PHONESAT 26 May 08:39:56 08:40:57 11° 296° (WNW) 08:41:58 437.300
Oscar 11 26 May 08:46:10 08:48:48 16° 92° (E) 08:51:25 .
SO-50 26 May 08:56:28 08:59:40 19° 249° (WSW) 09:02:53 436.795
NO-84 26 May 09:00:25 09:04:47 68° 135° (SE) 09:09:02 435.350 FM
CUTE 1.7 + AOD 2 26 May 09:02:37 09:06:34 37° 288° (WNW) 09:10:28 437.475
UNISAT 6 26 May 09:10:18 09:13:21 19° 66° (ENE) 09:16:25 437.425
AO-73 26 May 09:10:53 09:15:08 38° 98° (E) 09:19:24 145.935
HO-68 26 May 09:12:45 09:19:48 58° 291° (WNW) 09:26:48 435.675
XW-2A 26 May 09:16:34 09:19:14 21° 290° (WNW) 09:21:53 145.665 - 145.685
STRAND 1 26 May 09:16:53 09:16:58 10° 272° (W) 09:17:02 437.568
RS-15 26 May 09:18:16 09:28:46 31° 28° (NNE) 09:38:54 29.354- 29.394
AAUSAT CUBESAT 2 26 May 09:18:22 09:22:32 82° 282° (WNW) 09:26:38 437.432
ZACube-1 26 May 09:24:23 09:28:54 60° 100° (E) 09:33:26 437.345
PRISM 26 May 09:26:11 09:29:59 36° 71° (ENE) 09:33:47 437.425
M-CUBED/EXP-1 PRIME 26 May 09:34:42 09:37:04 15° 261° (W) 09:39:22 437.505
CUBEBUG 2 26 May 09:34:58 09:39:10 37° 289° (WNW) 09:43:29 437.445
DELFI C3 26 May 09:42:53 09:45:26 16° 93° (E) 09:47:57 145.870
UWE-3 26 May 09:46:13 09:50:36 46° 287° (WNW) 09:55:02 435.000/436.395/437.385
FO-29 26 May 09:51:15 09:56:17 54° 71° (ENE) 10:01:27 435.910
EO-88 26 May 09:53:39 09:55:47 15° 93° (E) 09:57:54 145.990 - 145.960
SEEDS 26 May 09:53:50 09:56:33 17° 294° (WNW) 09:59:15 437.485
TIGRISAT 26 May 10:13:48 10:18:03 87° 82° (E) 10:22:25 435.000
Oscar 11 26 May 10:20:59 10:25:09 45° 288° (WNW) 10:29:17 .
POLYITAN 1 26 May 10:36:39 10:37:43 11° 62° (ENE) 10:38:48 437.675
NO-84 26 May 10:39:07 10:42:43 25° 332° (NNW) 10:46:11 435.350 FM
DUCHIFAT 1 26 May 10:43:53 10:44:34 10° 62° (ENE) 10:45:16 145.980
QB50P2 26 May 10:43:56 10:46:14 15° 64° (ENE) 10:48:33 145.880/145.840
UNISAT 6 26 May 10:45:49 10:49:46 37° 263° (W) 10:53:49 437.425
AO-73 26 May 10:47:42 10:51:06 21° 293° (WNW) 10:54:31 145.935
ZACube-1 26 May 11:02:15 11:04:39 14° 296° (WNW) 11:07:06 437.345
PRISM 26 May 11:02:34 11:05:22 18° 266° (W) 11:08:10 437.425
HO-68 26 May 11:03:59 11:06:01 11° 311° (NW) 11:08:03 435.675
AIST 2D 26 May 11:09:31 11:12:52 44° 74° (ENE) 11:16:16 435.315
DELFI C3 26 May 11:16:44 11:20:18 34° 288° (WNW) 11:23:51 145.870
EO-79 26 May 11:19:35 11:23:18 32° 70° (ENE) 11:27:02 145.935-145.965
EO-88 26 May 11:26:13 11:29:35 33° 288° (WNW) 11:32:54 145.990 - 145.960
RS-15 26 May 11:31:15 11:43:34 80° 57° (ENE) 11:55:12 29.354- 29.394
FO-29 26 May 11:38:42 11:41:52 16° 269° (W) 11:45:03 435.910
YUBILEINY 26 May 11:47:05 11:55:07 37° 72° (ENE) 12:03:05 435.215
NANOSAT C BR1 26 May 12:04:32 12:08:42 85° 256° (WSW) 12:12:55 145.865
ESTCUBE 1 26 May 12:08:06 12:12:28 46° 99° (E) 12:16:46 437.505/2401.250
POLYITAN 1 26 May 12:08:45 12:12:54 69° 258° (WSW) 12:17:07 437.675
LO-87 26 May 12:10:24 12:13:58 78° 283° (WNW) 12:17:31 145.935 - 145.965
DUCHIFAT 1 26 May 12:15:29 12:19:37 71° 257° (WSW) 12:23:48 145.980
QB50P2 26 May 12:17:32 12:21:36 49° 260° (W) 12:25:42 145.880/145.840
NO-84 26 May 12:20:11 12:21:31 11° 352° (N) 12:22:50 435.350 FM
BUGSAT 1 26 May 12:35:18 12:39:12 55° 74° (ENE) 12:43:09 437.445
Gurwin Techsat 1B 26 May 12:40:51 12:44:13 17° 61° (ENE) 12:47:35 435.225
AIST 2D 26 May 12:46:00 12:46:19 10° 270° (W) 12:46:39 435.315
AO-85 26 May 12:53:13 12:56:28 23° 48° (NE) 12:59:48 145.980
EO-79 26 May 12:55:56 12:59:05 21° 266° (W) 13:02:16 145.935-145.965
SPROUT 26 May 13:02:14 13:06:23 46° 99° (E) 13:10:30 437.525
Oscar 19 26 May 13:03:58 13:08:53 44° 70° (ENE) 13:13:48 437.125/150
VELOX 1 26 May 13:05:27 13:09:42 48° 100° (E) 13:13:56 145.980
50 SAT 26 May 13:26:50 13:30:05 42° 100° (E) 13:33:18 437.505
UKube-1 26 May 13:35:29 13:38:59 24° 95° (E) 13:42:28 .
O/OREOS (USA 219) 26 May 13:38:41 13:42:54 37° 62° (ENE) 13:47:04 437.305
DX 1 26 May 13:42:06 13:46:13 42° 99° (E) 13:50:19 434.975-435.025
YUBILEINY 26 May 13:43:43 13:52:05 49° 271° (W) 14:00:25 435.215
RS-15 26 May 13:45:11 13:54:39 29° 258° (WSW) 14:03:49 29.354- 29.394
ESTCUBE 1 26 May 13:45:56 13:48:52 17° 296° (WNW) 13:51:48 437.505/2401.250
BEESAT 2 26 May 13:51:57 13:53:54 13° 41° (NE) 13:55:51 435.950
NO-84 26 May 13:58:46 14:00:37 13° 13° (NNE) 14:02:25 435.350 FM
ITAMSAT 1 26 May 14:07:16 14:10:11 15° 61° (ENE) 14:13:08 435.822/435.867
BEESAT 3 26 May 14:11:31 14:15:22 42° 53° (NE) 14:19:09 437.485
BUGSAT 1 26 May 14:14:01 14:14:54 11° 269° (W) 14:15:49 437.445
AO-7 26 May 14:17:29 14:24:37 34° 58° (ENE) 14:31:48 .
Gurwin Techsat 1B 26 May 14:18:21 14:23:36 64° 258° (WSW) 14:28:54 435.225
AO-85 26 May 14:33:10 14:36:54 35° 244° (WSW) 14:40:50 145.980
SPROUT 26 May 14:39:19 14:41:54 16° 295° (WNW) 14:44:28 437.525
BEESAT 26 May 14:40:18 14:41:20 11° 89° (E) 14:42:23 436.000
VELOX 1 26 May 14:43:05 14:45:45 16° 296° (WNW) 14:48:24 145.980
Oscar 19 26 May 14:44:20 14:48:21 22° 266° (W) 14:52:24 437.125/150
50 SAT 26 May 15:01:44 15:02:32 11° 295° (WNW) 15:03:21 437.505
UKube-1 26 May 15:11:16 15:15:00 29° 291° (WNW) 15:18:41 .
O/OREOS (USA 219) 26 May 15:18:42 15:22:01 20° 259° (W) 15:25:18 437.305
DX 1 26 May 15:19:10 15:22:04 18° 295° (WNW) 15:24:58 434.975-435.025
BEESAT 2 26 May 15:28:07 15:32:12 80° 239° (WSW) 15:36:13 435.950
NO-84 26 May 15:35:34 15:39:09 39° 34° (NE) 15:42:27 435.350 FM
ITUPSAT 1 26 May 15:41:14 15:45:53 47° 100° (E) 15:50:31 437.325
ITAMSAT 1 26 May 15:43:54 15:49:03 70° 257° (WSW) 15:54:14 435.822/435.867
BEESAT 3 26 May 15:50:01 15:52:36 17° 250° (WSW) 15:55:09 437.485
MOZHAYETS 4 26 May 15:58:53 16:03:19 42° 98° (E) 16:07:41
AO-7 26 May 16:08:53 16:16:58 57° 257° (WSW) 16:25:09 .
BEESAT 26 May 16:14:50 16:19:38 78° 285° (WNW) 16:24:25 436.000
CUBESAT XI-V 26 May 16:44:56 16:48:37 23° 94° (E) 16:52:15 437.345
KKS-1 26 May 16:53:50 16:57:19 22° 95° (E) 17:00:46 437.445
NO-84 26 May 17:13:39 17:16:28 22° 234° (SW) 17:19:05 435.350 FM
ITUPSAT 1 26 May 17:19:56 17:23:21 20° 296° (WNW) 17:26:45 437.325
XW-2D 26 May 17:23:32 17:26:13 19° 68° (ENE) 17:28:56 145.860 - 145.880
STARS 26 May 17:25:15 17:28:32 20° 94° (E) 17:31:50 437.465
XW-2B 26 May 17:31:10 17:34:07 22° 69° (ENE) 17:37:06 145.730 - 145.750
MOZHAYETS 4 26 May 17:36:47 17:40:09 20° 294° (WNW) 17:43:31
CUTE-I 26 May 17:38:39 17:43:19 33° 67° (ENE) 17:48:01 437.470
NUDT-PHONESAT 26 May 17:43:09 17:46:07 23° 70° (ENE) 17:49:06 437.300
XW-2F 26 May 17:43:25 17:46:44 29° 71° (ENE) 17:50:05 145.980 - 146.000
XW-2C 26 May 17:44:19 17:47:42 31° 71° (ENE) 17:51:07 145.795 - 145.815
KAITUO 1B 26 May 17:51:10 17:54:28 29° 71° (ENE) 17:57:47 145.475/437.950
HO-68 26 May 17:55:28 18:00:28 21° 56° (NE) 18:05:28 435.675
DOVE 4 26 May 17:57:07 18:01:47 90° 56° (NE) 18:06:11 437.250
PCSat 26 May 18:16:00 18:19:13 16° 104° (ESE) 18:22:26 145.827
CUTE 1.7 + AOD 2 26 May 18:20:56 18:23:03 14° 64° (ENE) 18:25:09 437.475
CUBESAT XI-V 26 May 18:21:49 18:26:02 35° 290° (WNW) 18:30:12 437.345
LilacSat-2 26 May 18:21:50 18:25:40 81° 258° (WSW) 18:29:34 437.200
KKS-1 26 May 18:29:57 18:33:55 33° 290° (WNW) 18:37:52 437.445
XW-2D 26 May 18:56:50 19:00:12 29° 264° (W) 19:03:35 145.860 - 145.880
CUBEBUG 2 26 May 18:57:49 19:00:21 16° 65° (ENE) 19:02:54 437.445
STARS 26 May 19:00:58 19:04:57 35° 290° (WNW) 19:08:56 437.465
XW-2B 26 May 19:05:01 19:08:10 25° 264° (W) 19:11:23 145.730 - 145.750
SEEDS 26 May 19:08:31 19:12:08 28° 69° (ENE) 19:15:46 437.485
UWE-3 26 May 19:08:57 19:10:49 13° 63° (ENE) 19:12:42 435.000/436.395/437.385
NUDT-PHONESAT 26 May 19:17:00 19:19:56 22° 265° (W) 19:22:55 437.300
XW-2F 26 May 19:18:14 19:20:54 18° 267° (W) 19:23:36 145.980 - 146.000
CUTE-I 26 May 19:18:40 19:23:19 31° 264° (W) 19:28:01 437.470
XW-2C 26 May 19:19:25 19:21:57 17° 267° (W) 19:24:31 145.795 - 145.815
KAITUO 1B 26 May 19:25:54 19:28:30 18° 267° (W) 19:31:08 145.475/437.950
HO-68 26 May 19:40:10 19:47:21 81° 255° (WSW) 19:54:36 435.675
Oscar 11 26 May 19:41:39 19:43:31 13° 63° (ENE) 19:45:23 .
STRAND 1 26 May 19:43:08 19:47:40 30° 96° (E) 19:52:10 437.568
XW-2A 26 May 19:46:33 19:49:52 68° 259° (W) 19:53:14 145.665 - 145.685
Tancredo 1 26 May 19:49:04 19:51:40 25° 135° (SE) 19:54:18 437.200
CUTE 1.7 + AOD 2 26 May 19:54:10 19:58:23 56° 260° (W) 20:02:37 437.475
PCSat 26 May 19:56:36 20:01:59 68° 301° (WNW) 20:07:25 145.827
AO-73 26 May 20:06:17 20:09:51 27° 69° (ENE) 20:13:29 145.935
AAUSAT CUBESAT 2 26 May 20:07:36 20:11:43 60° 75° (ENE) 20:15:51 437.432
ZACube-1 26 May 20:19:48 20:23:46 42° 72° (ENE) 20:27:51 437.345
ISS 26 May 20:20:09 20:23:10 34° 136° (SE) 20:26:13 437.550
DELFI C3 26 May 20:30:21 20:30:43 10° 63° (ENE) 20:31:05 145.870
CUBEBUG 2 26 May 20:32:37 20:36:35 43° 262° (W) 20:40:38 437.445
UWE-3 26 May 20:42:38 20:46:44 57° 260° (W) 20:50:57 435.000/436.395/437.385
SEEDS 26 May 20:44:18 20:47:46 24° 265° (W) 20:51:16 437.485
M-CUBED/EXP-1 PRIME 26 May 21:11:49 21:14:42 27° 103° (ESE) 21:17:31 437.505
Oscar 11 26 May 21:14:49 21:19:06 63° 260° (W) 21:23:26 .
STRAND 1 26 May 21:22:15 21:26:47 32° 292° (WNW) 21:31:18 437.568
Tancredo 1 26 May 21:24:31 21:27:21 33° 332° (NNW) 21:30:12 437.200
SO-50 26 May 21:30:52 21:33:32 15° 109° (ESE) 21:36:11 436.795
HO-68 26 May 21:33:00 21:36:05 13° 272° (W) 21:39:11 435.675
AO-73 26 May 21:42:34 21:46:02 25° 266° (W) 21:49:35 145.935
PCSat 26 May 21:43:57 21:46:25 13° 321° (NW) 21:48:54 145.827
AAUSAT CUBESAT 2 26 May 21:46:27 21:47:33 11° 270° (W) 21:48:39 437.432
ISS 26 May 21:56:42 21:59:41 30° 333° (NNW) 22:02:40 437.550
ZACube-1 26 May 21:57:42 22:00:17 16° 269° (W) 22:02:54 437.345
DELFI C3 26 May 22:00:57 22:04:56 67° 259° (W) 22:08:54 145.870
EO-88 26 May 22:02:56 22:06:35 88° 268° (W) 22:10:16 145.990 - 145.960
TIGRISAT 26 May 22:06:00 22:09:20 19° 93° (E) 22:12:42 435.000
UNISAT 6 26 May 22:36:56 22:41:21 44° 99° (E) 22:45:49 437.425
PRISM 26 May 22:42:26 22:46:28 61° 102° (ESE) 22:50:28 437.425
FO-29 26 May 22:43:09 22:49:33 56° 101° (E) 22:56:42 435.910
LO-87 26 May 22:46:06 22:49:22 35° 73° (ENE) 22:52:38 145.935 - 145.965
M-CUBED/EXP-1 PRIME 26 May 22:47:03 22:48:57 15° 299° (WNW) 22:50:49 437.505
Tancredo 1 26 May 23:02:25 23:03:49 12° 351° (N) 23:05:12 437.200
ESTCUBE 1 26 May 23:07:03 23:11:18 41° 71° (ENE) 23:15:35 437.505/2401.250
SO-50 26 May 23:08:59 23:13:30 58° 305° (NW) 23:18:01 436.795
ISS 26 May 23:35:17 23:36:58 13° 353° (N) 23:38:39 437.550
TIGRISAT 26 May 23:41:49 23:46:09 41° 288° (WNW) 23:50:31 435.000
NANOSAT C BR1 26 May 23:50:11 23:52:45 15° 92° (E) 23:55:18 145.865
POLYITAN 1 26 May 23:54:28 23:57:34 19° 94° (E) 00:00:40 437.675
SPROUT 26 May 23:55:14 23:59:02 33° 70° (ENE) 00:02:51 437.525
50 SAT 26 May 23:59:43 00:01:53 16° 68° (ENE) 00:04:04 437.505
DUCHIFAT 1 27 May 00:00:29 00:03:25 18° 93° (E) 00:06:21 145.980
VELOX 1 27 May 00:02:10 00:06:18 41° 71° (ENE) 00:10:27 145.980
QB50P2 27 May 00:02:46 00:06:22 26° 96° (E) 00:09:56 145.880/145.840
AIST 2D 27 May 00:07:42 00:11:14 58° 101° (E) 00:14:43 435.315
UNISAT 6 27 May 00:14:29 00:17:44 19° 294° (WNW) 00:21:00 437.425
PRISM 27 May 00:19:55 00:21:12 11° 298° (WNW) 00:22:30 437.425
LO-87 27 May 00:21:20 00:22:57 13° 268° (W) 00:24:34 145.935 - 145.965
FO-29 27 May 00:29:01 00:34:17 27° 295° (WNW) 00:40:03 435.910
UKube-1 27 May 00:29:55 00:33:06 21° 66° (ENE) 00:36:19 .
DX 1 27 May 00:37:11 00:41:09 35° 70° (ENE) 00:45:07 434.975-435.025
Tancredo 1 27 May 00:39:04 00:40:36 13° 11° (N) 00:42:08 437.200
EO-79 27 May 00:39:21 00:43:35 62° 101° (E) 00:47:48 145.935-145.965
ESTCUBE 1 27 May 00:45:06 00:48:16 19° 267° (W) 00:51:27 437.505/2401.250
YUBILEINY 27 May 00:47:45 00:55:42 42° 87° (E) 01:03:44 435.215
SO-50 27 May 00:54:19 00:54:55 10° 325° (NW) 00:55:31 436.795
ISS 27 May 01:12:25 01:14:31 16° 14° (NNE) 01:16:36 437.550
Oscar 19 27 May 01:17:07 01:20:05 15° 91° (E) 01:23:01 437.125/150
NANOSAT C BR1 27 May 01:24:37 01:28:40 43° 288° (WNW) 01:32:42 145.865
POLYITAN 1 27 May 01:29:32 01:33:26 35° 289° (WNW) 01:37:20 437.675
50 SAT 27 May 01:31:31 01:34:32 28° 263° (W) 01:37:33 437.505
SPROUT 27 May 01:31:53 01:35:00 20° 266° (W) 01:38:08 437.525
DUCHIFAT 1 27 May 01:35:17 01:39:12 37° 289° (WNW) 01:43:06 145.980
QB50P2 27 May 01:38:29 01:42:04 26° 291° (WNW) 01:45:38 145.880/145.840
VELOX 1 27 May 01:39:57 01:42:55 18° 267° (W) 01:45:53 145.980
BEESAT 27 May 01:45:56 01:48:14 14° 61° (ENE) 01:50:34 436.000
BUGSAT 1 27 May 01:52:02 01:56:11 79° 286° (WNW) 02:00:21 437.445
RS-15 27 May 01:52:49 02:04:18 54° 111° (ESE) 02:16:05 29.354- 29.394
UKube-1 27 May 02:04:58 02:08:54 35° 262° (W) 02:12:52 .
Tancredo 1 27 May 02:14:05 02:17:00 39° 30° (NNE) 02:19:55 437.200
DX 1 27 May 02:14:12 02:17:24 20° 266° (W) 02:20:37 434.975-435.025
EO-79 27 May 02:17:05 02:18:49 12° 297° (WNW) 02:20:32 145.935-145.965
Gurwin Techsat 1B 27 May 02:34:47 02:39:59 52° 100° (E) 02:45:09 435.225
YUBILEINY 27 May 02:44:18 02:52:26 42° 287° (WNW) 03:00:40 435.215
ITUPSAT 1 27 May 02:47:28 02:52:06 53° 72° (ENE) 02:56:45 437.325
ISS 27 May 02:48:21 02:51:35 53° 33° (NNE) 02:54:47 437.550
Oscar 19 27 May 02:54:43 02:59:49 62° 287° (WNW) 03:04:53 437.125/150
MOZHAYETS 4 27 May 03:00:17 03:04:32 38° 71° (ENE) 03:08:49
PCSat 27 May 03:02:39 03:05:59 16° 42° (NE) 03:09:18 145.827
BEESAT 27 May 03:20:41 03:25:25 70° 258° (WSW) 03:30:11 436.000
CUBESAT XI-V 27 May 03:47:57 03:51:36 23° 67° (ENE) 03:55:16 437.345
Tancredo 1 27 May 03:50:13 03:52:35 20° 227° (SW) 03:54:57 437.200
O/OREOS (USA 219) 27 May 03:50:21 03:54:44 46° 107° (ESE) 03:59:08 437.305
KKS-1 27 May 03:51:50 03:55:08 21° 66° (ENE) 03:58:26 437.445
ITAMSAT 1 27 May 03:57:03 04:01:59 42° 99° (E) 04:06:54 435.822/435.867
RS-15 27 May 04:05:11 04:16:58 52° 314° (NW) 04:28:59 29.354- 29.394
AO-7 27 May 04:10:30 04:18:36 51° 102° (ESE) 04:26:39 .
Gurwin Techsat 1B 27 May 04:15:39 04:19:31 21° 297° (WNW) 04:23:24 435.225
STARS 27 May 04:21:55 04:24:56 19° 65° (ENE) 04:27:57 437.465
ISS 27 May 04:25:36 04:27:46 17° 229° (SW) 04:29:56 437.550
ITUPSAT 1 27 May 04:27:20 04:30:13 16° 268° (W) 04:33:09 437.325
MOZHAYETS 4 27 May 04:38:23 04:41:48 20° 267° (W) 04:45:16
PCSat 27 May 04:44:42 04:50:10 89° 59° (ENE) 04:55:35 145.827
AO-85 27 May 04:46:54 04:51:05 74° 120° (ESE) 04:55:04 145.980
BEESAT 2 27 May 05:20:03 05:22:47 18° 111° (ESE) 05:25:33 435.950
CUBESAT XI-V 27 May 05:24:23 05:28:45 37° 263° (W) 05:33:07 437.345
KKS-1 27 May 05:27:21 05:31:27 36° 262° (W) 05:35:33 437.445
O/OREOS (USA 219) 27 May 05:31:05 05:34:23 19° 304° (NW) 05:37:41 437.305
ITAMSAT 1 27 May 05:37:02 05:41:11 25° 295° (WNW) 05:45:20 435.822/435.867
BEESAT 3 27 May 05:37:44 05:41:40 83° 122° (ESE) 05:45:41 437.485
DOVE 4 27 May 05:56:30 05:59:45 21° 95° (E) 06:03:03 437.250
STARS 27 May 05:56:52 06:00:58 40° 261° (W) 06:05:05 437.465
CUTE-I 27 May 05:57:30 05:59:45 13° 89° (E) 06:01:59 437.470
LilacSat-2 27 May 05:57:31 05:58:42 11° 90° (E) 05:59:52 437.200
SO-50 27 May 06:01:05 06:03:57 16° 41° (NE) 06:06:49 436.795
AO-7 27 May 06:03:38 06:11:06 38° 300° (WNW) 06:18:34 .
RS-15 27 May 06:24:01 06:33:26 24° 346° (NNW) 06:42:49 29.354- 29.394
XW-2D 27 May 06:29:23 06:32:42 27° 96° (E) 06:35:58 145.860 - 145.880
AO-85 27 May 06:29:57 06:31:54 13° 318° (NW) 06:33:50 145.980
PCSat 27 May 06:31:00 06:32:43 11° 258° (WSW) 06:34:26 145.827
XW-2B 27 May 06:37:13 06:40:42 32° 97° (E) 06:44:09 145.730 - 145.750
NUDT-PHONESAT 27 May 06:46:53 06:50:18 32° 97° (E) 06:53:42 437.300
XW-2F 27 May 06:49:17 06:52:59 44° 99° (E) 06:56:38 145.980 - 146.000
XW-2C 27 May 06:50:42 06:54:28 48° 99° (E) 06:58:10 145.795 - 145.815
KAITUO 1B 27 May 06:55:59 06:59:38 43° 99° (E) 07:03:14 145.475/437.950
BEESAT 2 27 May 06:56:29 07:00:14 39° 308° (NW) 07:04:03 435.950
STRAND 1 27 May 06:58:37 07:03:24 42° 70° (ENE) 07:08:11 437.568
HO-68 27 May 07:09:35 07:14:35 20° 91° (E) 07:19:32 435.675
BEESAT 3 27 May 07:18:06 07:19:49 12° 320° (NW) 07:21:33 437.485
LilacSat-2 27 May 07:29:29 07:33:16 50° 286° (WNW) 07:36:59 437.200
DOVE 4 27 May 07:33:50 07:37:28 29° 290° (WNW) 07:41:10 437.250
CUTE-I 27 May 07:35:01 07:40:22 78° 285° (WNW) 07:45:42 437.470
CUTE 1.7 + AOD 2 27 May 07:39:40 07:43:12 25° 95° (E) 07:46:40 437.475
SO-50 27 May 07:40:24 07:44:54 73° 241° (WSW) 07:49:25 436.795
M-CUBED/EXP-1 PRIME 27 May 07:56:33 08:00:32 42° 68° (ENE) 08:04:16 437.505
XW-2D 27 May 08:03:49 08:06:43 21° 292° (WNW) 08:09:37 145.860 - 145.880
XW-2B 27 May 08:12:01 08:14:39 18° 293° (WNW) 08:17:14 145.730 - 145.750
